Regional Weather Roundup
Issued by NWS Wakefield, VA

Home | Current Version | Previous Version | Text Only | Print | Product List | Glossary Off
Versions: 1 2 3 4 5 6 7 8 9 10 11 12 13 14 15 16 17 18 19 20 21 22 23 24 25 26 27 28 29 30 31 32 33 34 35 36 37 38 39 40 41 42 43 44 45 46 47 48 49 50

000
ASUS41 KAKQ 050315
RWRAKQ

REGIONAL WEATHER ROUNDUP
NATIONAL WEATHER SERVICE WAKEFIELD VA
1100 PM EDT TUE AUG 04 2015

Note: "fair" indicates few or no clouds below 12,000 feet with no
significant weather and/or obstructions to visibility. * = Denotes
station may not report precipitation (e.g., rain,snow,etc.),
thunder or fog.

VAZ042-051-052>054-056-050400-
NORTHERN VIRGINIA

CITY           SKY/WX    TMP DP  RH WIND       PRES   REMARKS
WASH NATIONAL  MOCLDY    80  70  71 N3        29.92R
DULLES         MOCLDY    72  70  93 NW3       29.93R
FORT BELVOIR   CLOUDY    74  69  82 N2        29.91S
QUANTICO       MOCLDY    79  67  66 S3        29.91S
FREDERICKSBRG* MOCLDY    80  67  64 CALM      29.91S
STAFFORD*      MOCLDY    74  65  74 CALM      29.95F
WARRENTON      MOCLDY    70  70  99 CALM      29.92S
CULPEPER*      PTCLDY    71  68  91 NW5       29.94S
MANASSAS*      MOCLDY    70  70 100 CALM      29.93R
LEESBURG*      MOCLDY    72  72 100 W6        29.94S
WINCHESTER     CLOUDY    73  68  83 CALM      29.96S
FRONT ROYAL*   FAIR      70  68  94 CALM      29.95S
LURAY*         FAIR      70  64  83 CALM      29.97S
$$

VAZ048-049-060>072-079>083-050400-
CENTRAL AND SOUTH CENTRAL VIRGINIA

CITY           SKY/WX    TMP DP  RH WIND       PRES   REMARKS
RICHMOND       PTCLDY    79  73  82 S5        29.92R
CHESTERFIELD*  FAIR      75  64  69 S5        29.94R
PETERSBURG*    CLOUDY    80  79  97 CALM      29.94R
HANOVER        MOCLDY    73  71  93 CALM      29.93S
TAPPAHANNOCK*  MOCLDY    79  73  83 CALM      29.91S
QUINTON*       FAIR      81  75  81 CALM      29.91S
CHARLOTTSVILLE PTCLDY    76  67  73 N5        29.96R
GORDONSVILLE*  FAIR      73  70  88 CALM      29.94S
ORANGE*        PTCLDY    72  70  94 CALM      29.96S
LOUISA*        MOCLDY    79  68  69 NW6       29.93R
BUMPASS*       FAIR      77  70  80 MISG      29.92R
FARMVILLE*     CLEAR     77  68  73 SW3       29.94R
CREWE*         FAIR     N/A N/A N/A CALM      29.94R
FORT PICKETT*  FAIR      76  73  90 CALM      29.95R
CHASE CITY*    FAIR      78  78 100 CALM      29.96R
CLARKSVILLE*   FAIR      77  72  83 CALM      29.95S
SOUTH HILL*    PTCLDY    76  73  88 S3        30.01R
LAWRENCEVILLE* FAIR      79  73  83 SW3       29.95R
EMPORIA*       PTCLDY    79  72  78 CALM      29.96R
$$

VAZ088>098-050400-
SOUTHEAST VIRGINIA

CITY           SKY/WX    TMP DP  RH WIND       PRES   REMARKS
NORFOLK        PTCLDY    81  72  74 S13       29.94R
VIRGINIA BEACH PTCLDY    82  72  71 S9        29.94R
NORFOLK NAVAL  MOCLDY    80  72  76 S12G20    29.95R
WEST POINT*    PTCLDY    85  72  66 S7        29.92S
SALUDA*        FAIR      81  74  80 S8        29.91R
NEWPORT NEWS   CLEAR     82  72  71 S12       29.93S
LANGLEY AFB    CLEAR     82  73  74 S15       29.93R
FORT EUSTIS    CLEAR     82  73  75 S8        29.91S
WILLIAMSBURG*  CLEAR     84  75  74 S6        29.93S
HR EXEC AP*    FAIR      79  72  78 S9        29.96S
FRANKLIN*      CLEAR     79  72  80 S7        29.95S
WAKEFIELD      CLEAR     81  72  74 S5        29.93S
$$

VAZ020-022-025-037-045-050400-
WEST CENTRAL AND SOUTHWEST VIRGINIA

CITY           SKY/WX    TMP DP  RH WIND       PRES   REMARKS
STAUNTON*      PTCLDY    77  62  59 NW3       30.01S
WAYNESBORO*    FAIR      75  61  61 W6        30.02R
HOT SPRINGS VA PTCLDY    69  62  79 W13       30.14S
LYNCHBURG      PTCLDY    76  68  76 CALM      29.99S
DANVILLE       PTCLDY    79  68  69 W5        29.98R
SOUTH BOSTON*  FAIR      73  72  94 CALM      29.96R
MARTINSVILLE   MOCLDY    73  73 100 CALM      30.03S
ROANOKE        PTCLDY    79  64  60 W13       30.03S
BLACKSBURG     MOCLDY    71  65  82 SW3       30.12S
DUBLIN*          N/A     72  65  77 SW6       30.11S
MARION*        CLOUDY    70  69  94 W8        30.16R FOG
HILLSVILLE*    CLOUDY    71  65  82 NW7       30.12S
RICHLANDS*     FAIR      70  66  88 NW3       30.15F
WISE*          CLOUDY    66  66 100 S6        30.16S
ABINGDON*      CLOUDY    71  66  84 N3        30.12S
$$

MDZ021>025-VAZ099-100-050400-
SOUTHERN MARYLAND AND THE DELMARVA PENINSULA

CITY           SKY/WX    TMP DP  RH WIND       PRES   REMARKS
PATUXENT RIVER MOCLDY    79  72  79 S7        29.89S
BAY BRIDGE APT   N/A     79  70  73 SW3       29.93R
LEONARDTOWN    CLOUDY    77  70  78 CALM      29.93R
DOVER          PTCLDY    72  71  96 CALM      29.90S
GEORGETOWN     RAIN      73  70  90 W7        29.93R FOG
EASTON         MOCLDY    80  72  77 S5        29.95R
CAMBRIDGE      MOCLDY    77  72  83 CALM      29.90F
SALISBURY      LGT RAIN  74  69  85 SW7       29.89F
OCEAN CITY     PTCLDY    79  68  69 SW6       29.90F
WALLOPS ISLAND MOCLDY    75  73  93 SW9       29.91S
ACCOMACK*      MOCLDY   N/A N/A N/A SE7       29.92F
$$

NCZ012>017-030>032-050400-
NORTH CENTRAL AND EASTERN NORTH CAROLINA

CITY           SKY/WX    TMP DP  RH WIND       PRES   REMARKS
ROANOKE RAPIDS FAIR      77  72  83 S3        29.95R
RALEIGH        PTCLDY    81  72  74 S3        29.98R
ELIZABETH CITY MOCLDY    78  74  87 S8        29.96S
AHOSKIE*       CLEAR    N/A N/A N/A S5        29.96S
EDENTON*         N/A     78  74  87 S7        29.96S
CURRITUCK*     MOCLDY    80  72  77 S3        29.96S
KILL DEVIL HLS CLOUDY    80  75  86 S6        29.97R
MANTEO         CLOUDY    80  76  86 S21       29.98S
CAPE HATTERAS  CLOUDY    77  75  93 S9        29.98F
TARBORO*         N/A     78  73  84 S3        29.96S
GOLDSBORO      CLEAR     76  73  90 SE3       29.95R
WASHINGTON     PTCLDY    76  73  90 CALM      29.96R
GREENVILLE     CLEAR     77  73  88 S5        29.98S
NEW BERN       MOCLDY    78  74  87 SW5       29.96S
WILMINGTON     PTCLDY    78  77  96 SW3       29.97R
$$

VAZ048-050400-
ELSEWHERE

CITY           SKY/WX    TMP DP  RH WIND       PRES   REMARKS
HARRISBURG PA  MOCLDY    73  60  63 CALM      29.92S
BALTIMORE      MOCLDY    73  71  93 CALM      29.91R
ANNAPOLIS      LGT RAIN  78  72  81 NE3       29.91R
ANDREWS AFB    MOCLDY    73  72  95 CALM      29.91S
PHILADELPHIA   MOCLDY    82  52  35 N7        29.90F
HENDERSON NC   CLEAR     78  69  73 S5        29.97S
GREENSBORO     PTCLDY    80  66  62 CALM      30.01R
ROCKY MOUNT    CLEAR     77  72  84 S3        29.96R
$$

VAZ100-050400-
MARINE

STATION/POSITION TIME  TEMP    WIND        PRES    WAVE   SWELL
                       AIR SEA DIR/SP/G            HT/PER HT/PER
                 (UTC) (F)     (DEG/KT/KT) (MB)    (FT/S) (FT/S)
BRANDYWINE LGT   0200   81 78  250/ 14/ 14 1012.6R
CAPE MAY NJ      0200   77 78  150/  4/  6 1012.1R
LEWES DE         0200   81 75  240/  3/  5 1012.1R
15NM E FENWICK I 0250   80 79  200/ 19/ 21 1012.3F   4/ 6   2/11
OCEAN-CITY-INLET 0200   80 76  240/ 12/ 15 1011.9R
WACHAPREAGUE VA  0200   81 85  100/  2/  7 1014.2R
GOOSES REEF MD   0300   81 83  300/ 10/ 14 1013.8R
COVE POINT MD    0200   81     190/ 17/ 19 1012.9R
SOLOMONS ISLAND  0200      84                N/A
BISHOPS HEAD MD  0200   81 83  170/ 20/ 21 1011.5R
PINEY POINT MD   0200          170/ 12/ 14   N/A
POTOMAC MD       0300   82 83  170/ 12/ 14 1011.1F   1/ 3
CAMBRIDGE MD     0200   76 85   90/  3/ 25 1011.6R
LEWISETTA VA     0200   80 85  190/  7/  9 1011.9R
RAPPAHANNOCK LGT 0200          180/ 14/ 16 1013.5R
STINGRAY PT      0300   85 84  200/ 14/ 17 1013.0R   2/ 3
YORK RVR RNG VA  0200   85     210/ 15/ 17 1012.5R
YORKTOWN VA      0200   84 84  200/ 10/ 13 1012.7R
JAMESTOWN VA     0300   82 85  200/ 12/ 16   N/A
DOMINION TERM VA 0200   83     190/ 14/ 17 1013.0R
KIPTOPEKE VA     0200      83  200/ 15/ 16   N/A
CHES BAY BRIDGE  0200   83 81  180/ 16/ 19 1013.0R
CAPE HENRY VA    0200   82     190/ 10/ 17   N/A
CHESAPEAKE LGHT  0200   78     190/ 23/ 26 1013.8R
WILLOUBY STN VA  0200   83     190/ 16/ 19 1014.1R
CAPE HENRY BUOY  0228      77                N/A     4/ 5
1ST LANDING BUOY 0300      81              1013.3R   2/ 3
CAPE CHARLES BUO 0226      74                N/A     3/ 4   2/11
OFFSHORE WE BUOY 0211      81                N/A     5/ 5   2/11
64NM E OF VA BCH 0250   81 81  200/ 19/ 23 1014.3R   5/ 6   2/11
DUCK PIER NC     0200   79 62  190/ 13/ 20 1013.8R
44100 DUCK FRF   0224      79                N/A     3/ 5
44056 DUCK FRF   0211      64                N/A     2/12   2/12
OREGON INLET NC  0200   80 82  170/ 17/ 20 1014.8R
HATTERAS NC      0200   76 79  170/ 14/ 22 1014.8S
DIAMOND SHLS NC  0250   79 83  170/ 25/ 29 1014.8F   6/ 7   2/ 8
CAPE LOOKOUT NC  0300   79     220/ 14/ 20 1014.7R
$$


USA.gov is the U.S. government's official web portal to all federal, state and local government web resources and services.